Zorkiy-2M No. 6

operational
NORAD ID: 59775 Int'l Des: 2024-092 Owner: SPUT Country: RU
LEOCIRCULARRETROGRADESSO

About Zorkiy-2M No. 6

Description loading...

Live Position

Loading 3D Globe...

Upcoming Passes

Altitude History

Altitude vs Time

uPlot chart will show altitude changes over time

Two-Line Element Set

1 59775U 24092C 26062.15135593 .00015435 00000-0 58263-3 0 9993
2 59775 97.6470 190.1773 0009559 192.3874 167.7131 15.27078358 99389
Epoch: Mar 3, 2026 • Age: 10 hours

Current Status

Altitude 498.9 km
Velocity 7.62 km/s
Sub-Earth Point 81.74°N, 121.14°E
Launch Date May 16, 2024
Age 1.7 years
Type other

Technical Details

Classification Payload
Mass 20.00 kg
Dry Mass 20.00 kg
Total Mass 20.00 kg
Length 0.40 m
Diameter 0.20 m
Span 0.40 m
Shape Box
Manufacturer SPUT
Bus Type Cubesat 12U
Phase Status In Orbit
Owner/State SPUT/RU

Large Constellations

Loading constellations...